Location: Santa Cristina
(46.5667°N, 11.7167°E)
Time: 05:30:38
(UTC+00:00)

DNEPR-1 R/B - Pass Details

Date: 21 April 2021
Orbit: 586 x 1335 km, 64.6° (Epoch: 15 May)

Event Time Altitude Azimuth Distance (km) Brightness Sun altitude
Exits shadow 03:38:35 - 229° (SW) 3,015 6.4 -6.7°
Reaches altitude 10° 03:39:30 10° 230° (SW) 2,672 6.2 -6.5°
Maximum altitude 03:45:33 60° 310° (NW) 931 4.4 -5.6°
Drops below altitude 10° 03:50:33 10° 31° (NNE) 2,212 7.3 -4.8°
Sets 03:52:44 0° 36° (NE) 3,052 8.2 -4.5°
